Year,Month,Day,Hour,Minute,Value (Times are PST for temperature in C)
2007,07,15,00,00,16.90
2007,07,15,00,01,16.90
2007,07,15,00,02,17.00
2007,07,15,00,03,17.00
2007,07,15,00,04,17.00
2007,07,15,00,05,17.00
2007,07,15,00,06,17.00
2007,07,15,00,07,17.00
2007,07,15,00,08,17.00
2007,07,15,00,09,17.00
2007,07,15,00,10,17.00
2007,07,15,00,11,17.00
2007,07,15,00,12,17.10
2007,07,15,00,13,17.10
2007,07,15,00,14,17.10
2007,07,15,00,15,17.10
2007,07,15,00,16,17.20
2007,07,15,00,17,17.20
2007,07,15,00,18,17.20
2007,07,15,00,19,17.20
2007,07,15,00,20,17.20
2007,07,15,00,21,17.10
2007,07,15,00,22,17.10
2007,07,15,00,23,17.10
2007,07,15,00,24,17.10
2007,07,15,00,25,17.10
2007,07,15,00,26,17.10
2007,07,15,00,27,17.20
2007,07,15,00,28,17.20
2007,07,15,00,29,17.20
2007,07,15,00,30,17.20
2007,07,15,00,31,17.20
2007,07,15,00,32,17.20
2007,07,15,00,33,17.30
2007,07,15,00,34,17.30
2007,07,15,00,35,17.20
2007,07,15,00,36,17.20
2007,07,15,00,37,17.10
2007,07,15,00,38,17.00
2007,07,15,00,39,17.00
2007,07,15,00,40,16.90
2007,07,15,00,41,16.90
2007,07,15,00,42,16.80
2007,07,15,00,43,16.80
2007,07,15,00,44,16.80
2007,07,15,00,45,16.80
2007,07,15,00,46,16.70
2007,07,15,00,47,16.70
2007,07,15,00,48,16.70
2007,07,15,00,49,16.80
2007,07,15,00,50,16.80
2007,07,15,00,51,16.90
2007,07,15,00,52,17.00
2007,07,15,00,53,17.10
2007,07,15,00,54,17.20
2007,07,15,00,55,17.20
2007,07,15,00,56,17.20
2007,07,15,00,57,17.30
2007,07,15,00,58,17.30
2007,07,15,00,59,17.30
2007,07,15,01,00,17.30
2007,07,15,01,01,17.40
2007,07,15,01,02,17.40
2007,07,15,01,03,17.50
2007,07,15,01,04,17.50
2007,07,15,01,05,17.60
2007,07,15,01,06,17.60
2007,07,15,01,07,17.60
2007,07,15,01,08,17.60
2007,07,15,01,09,17.70
2007,07,15,01,10,17.70
2007,07,15,01,11,17.70
2007,07,15,01,12,17.70
2007,07,15,01,13,17.70
2007,07,15,01,14,17.80
2007,07,15,01,15,17.80
2007,07,15,01,16,17.80
2007,07,15,01,17,17.80
2007,07,15,01,18,17.80
2007,07,15,01,19,17.70
2007,07,15,01,20,17.70
2007,07,15,01,21,17.60
2007,07,15,01,22,17.60
2007,07,15,01,23,17.50
2007,07,15,01,24,17.50
2007,07,15,01,25,17.50
2007,07,15,01,26,17.40
2007,07,15,01,27,17.40
2007,07,15,01,28,17.50
2007,07,15,01,29,17.50
2007,07,15,01,30,17.60
2007,07,15,01,31,17.60
2007,07,15,01,32,17.70
2007,07,15,01,33,17.70
2007,07,15,01,34,17.70
2007,07,15,01,35,17.80
2007,07,15,01,36,17.80
2007,07,15,01,37,17.90
2007,07,15,01,38,17.90
2007,07,15,01,39,17.90
2007,07,15,01,40,17.90
2007,07,15,01,41,17.90
2007,07,15,01,42,17.90
2007,07,15,01,43,17.90
2007,07,15,01,44,17.90
2007,07,15,01,45,17.90
2007,07,15,01,46,17.90
2007,07,15,01,47,17.80
2007,07,15,01,48,17.80
2007,07,15,01,49,17.80
2007,07,15,01,50,17.80
2007,07,15,01,51,17.80
2007,07,15,01,52,17.80
2007,07,15,01,53,17.90
2007,07,15,01,54,17.90
2007,07,15,01,55,17.90
2007,07,15,01,56,17.90
2007,07,15,01,57,18.00
2007,07,15,01,58,18.00
2007,07,15,01,59,18.00
2007,07,15,02,00,17.90
2007,07,15,02,01,17.80
2007,07,15,02,02,17.80
2007,07,15,02,03,17.70
2007,07,15,02,04,17.70
2007,07,15,02,05,17.60
2007,07,15,02,06,17.60
2007,07,15,02,07,17.60
2007,07,15,02,08,17.60
2007,07,15,02,09,17.60
2007,07,15,02,10,17.60
2007,07,15,02,11,17.60
2007,07,15,02,12,17.60
2007,07,15,02,13,17.60
2007,07,15,02,14,17.70
2007,07,15,02,15,17.70
2007,07,15,02,16,17.70
2007,07,15,02,17,17.70
2007,07,15,02,18,17.80
2007,07,15,02,19,17.80
2007,07,15,02,20,17.80
2007,07,15,02,21,17.80
2007,07,15,02,22,17.80
2007,07,15,02,23,17.80
2007,07,15,02,24,17.80
2007,07,15,02,25,17.80
2007,07,15,02,26,17.80
2007,07,15,02,27,17.80
2007,07,15,02,28,17.80
2007,07,15,02,29,17.70
2007,07,15,02,30,17.60
2007,07,15,02,31,17.60
2007,07,15,02,32,17.60
2007,07,15,02,33,17.60
2007,07,15,02,34,17.50
2007,07,15,02,35,17.50
2007,07,15,02,36,17.40
2007,07,15,02,37,17.30
2007,07,15,02,38,17.20
2007,07,15,02,39,17.20
2007,07,15,02,40,17.10
2007,07,15,02,41,17.10
2007,07,15,02,42,17.10
2007,07,15,02,43,17.20
2007,07,15,02,44,17.20
2007,07,15,02,45,17.20
2007,07,15,02,46,17.20
2007,07,15,02,47,17.20
2007,07,15,02,48,17.10
2007,07,15,02,49,17.10
2007,07,15,02,50,17.10
2007,07,15,02,51,17.10
2007,07,15,02,52,17.00
2007,07,15,02,53,17.00
2007,07,15,02,54,17.00
2007,07,15,02,55,17.00
2007,07,15,02,56,17.00
2007,07,15,02,57,17.00
2007,07,15,02,58,16.90
2007,07,15,02,59,16.90
2007,07,15,03,00,16.90
2007,07,15,03,01,16.90
2007,07,15,03,02,17.00
2007,07,15,03,03,17.00
2007,07,15,03,04,17.10
2007,07,15,03,05,17.00
2007,07,15,03,06,17.00
2007,07,15,03,07,17.00
2007,07,15,03,08,16.90
2007,07,15,03,09,16.90
2007,07,15,03,10,16.80
2007,07,15,03,11,16.80
2007,07,15,03,12,16.80
2007,07,15,03,13,16.90
2007,07,15,03,14,16.90
2007,07,15,03,15,16.90
2007,07,15,03,16,16.90
2007,07,15,03,17,17.00
2007,07,15,03,18,16.90
2007,07,15,03,19,16.90
2007,07,15,03,20,16.80
2007,07,15,03,21,16.80
2007,07,15,03,22,16.70
2007,07,15,03,23,16.70
2007,07,15,03,24,16.70
2007,07,15,03,25,16.70
2007,07,15,03,26,16.70
2007,07,15,03,27,16.70
2007,07,15,03,28,16.70
2007,07,15,03,29,16.70
2007,07,15,03,30,16.70
2007,07,15,03,31,16.70
2007,07,15,03,32,16.70
2007,07,15,03,33,16.70
2007,07,15,03,34,16.70
2007,07,15,03,35,16.70
2007,07,15,03,36,16.60
2007,07,15,03,37,16.60
2007,07,15,03,38,16.60
2007,07,15,03,39,16.60
2007,07,15,03,40,16.60
2007,07,15,03,41,16.70
2007,07,15,03,42,16.70
2007,07,15,03,43,16.70
2007,07,15,03,44,16.70
2007,07,15,03,45,16.70
2007,07,15,03,46,16.70
2007,07,15,03,47,16.70
2007,07,15,03,48,16.70
2007,07,15,03,49,16.70
2007,07,15,03,50,16.70
2007,07,15,03,51,16.70
2007,07,15,03,52,16.60
2007,07,15,03,53,16.60
2007,07,15,03,54,16.60
2007,07,15,03,55,16.60
2007,07,15,03,56,16.70
2007,07,15,03,57,16.70
2007,07,15,03,58,16.80
2007,07,15,03,59,16.80
2007,07,15,04,00,16.90
2007,07,15,04,01,16.90
2007,07,15,04,02,16.90
2007,07,15,04,03,16.90
2007,07,15,04,04,16.90
2007,07,15,04,05,16.90
2007,07,15,04,06,16.90
2007,07,15,04,07,17.00
2007,07,15,04,08,17.00
2007,07,15,04,09,16.90
2007,07,15,04,10,16.90
2007,07,15,04,11,16.90
2007,07,15,04,12,16.90
2007,07,15,04,13,16.90
2007,07,15,04,14,16.90
2007,07,15,04,15,16.90
2007,07,15,04,16,16.90
2007,07,15,04,17,16.90
2007,07,15,04,18,16.90
2007,07,15,04,19,16.90
2007,07,15,04,20,17.00
2007,07,15,04,21,17.00
2007,07,15,04,22,16.90
2007,07,15,04,23,16.90
2007,07,15,04,24,16.90
2007,07,15,04,25,16.90
2007,07,15,04,26,16.80
2007,07,15,04,27,16.80
2007,07,15,04,28,16.90
2007,07,15,04,29,16.90
2007,07,15,04,30,16.90
2007,07,15,04,31,16.90
2007,07,15,04,32,16.90
2007,07,15,04,33,16.90
2007,07,15,04,34,16.90
2007,07,15,04,35,16.90
2007,07,15,04,36,16.80
2007,07,15,04,37,16.80
2007,07,15,04,38,16.80
2007,07,15,04,39,16.80
2007,07,15,04,40,16.80
2007,07,15,04,41,16.80
2007,07,15,04,42,16.80
2007,07,15,04,43,16.80
2007,07,15,04,44,16.80
2007,07,15,04,45,16.80
2007,07,15,04,46,16.70
2007,07,15,04,47,16.60
2007,07,15,04,48,16.60
2007,07,15,04,49,16.50
2007,07,15,04,50,16.50
2007,07,15,04,51,16.50
2007,07,15,04,52,16.40
2007,07,15,04,53,16.30
2007,07,15,04,54,16.30
2007,07,15,04,55,16.20
2007,07,15,04,56,16.20
2007,07,15,04,57,16.10
2007,07,15,04,58,16.00
2007,07,15,04,59,15.80
2007,07,15,05,00,15.70
2007,07,15,05,01,15.60
2007,07,15,05,02,15.50
2007,07,15,05,03,15.50
2007,07,15,05,04,15.50
2007,07,15,05,05,15.50
2007,07,15,05,06,15.60
2007,07,15,05,07,15.60
2007,07,15,05,08,15.80
2007,07,15,05,09,15.80
2007,07,15,05,10,16.00
2007,07,15,05,11,16.00
2007,07,15,05,12,16.10
2007,07,15,05,13,16.20
2007,07,15,05,14,16.20
2007,07,15,05,15,16.30
2007,07,15,05,16,16.30
2007,07,15,05,17,16.30
2007,07,15,05,18,16.30
2007,07,15,05,19,16.30
2007,07,15,05,20,16.30
2007,07,15,05,21,16.40
2007,07,15,05,22,16.40
2007,07,15,05,23,16.40
2007,07,15,05,24,16.50
2007,07,15,05,25,16.60
2007,07,15,05,26,16.60
2007,07,15,05,27,16.70
2007,07,15,05,28,16.70
2007,07,15,05,29,16.70
2007,07,15,05,30,16.70
2007,07,15,05,31,16.70
2007,07,15,05,32,16.70
2007,07,15,05,33,16.70
2007,07,15,05,34,16.70
2007,07,15,05,35,16.70
2007,07,15,05,36,16.70
2007,07,15,05,37,16.80
2007,07,15,05,38,16.80
2007,07,15,05,39,16.80
2007,07,15,05,40,16.80
2007,07,15,05,41,16.80
2007,07,15,05,42,16.80
2007,07,15,05,43,16.80
2007,07,15,05,44,16.80
2007,07,15,05,45,16.70
2007,07,15,05,46,16.70
2007,07,15,05,47,16.70
2007,07,15,05,48,16.70
2007,07,15,05,49,16.60
2007,07,15,05,50,16.60
2007,07,15,05,51,16.60
2007,07,15,05,52,16.60
2007,07,15,05,53,16.60
2007,07,15,05,54,16.60
2007,07,15,05,55,16.60
2007,07,15,05,56,16.60
2007,07,15,05,57,16.60
2007,07,15,05,58,16.60
2007,07,15,05,59,16.70
2007,07,15,06,00,16.70
2007,07,15,06,01,16.70
2007,07,15,06,02,16.70
2007,07,15,06,03,16.70
2007,07,15,06,04,16.70
2007,07,15,06,05,16.70
2007,07,15,06,06,16.70
2007,07,15,06,07,16.70
2007,07,15,06,08,16.70
2007,07,15,06,09,16.80
2007,07,15,06,10,16.80
2007,07,15,06,11,16.80
2007,07,15,06,12,16.80
2007,07,15,06,13,16.90
2007,07,15,06,14,16.90
2007,07,15,06,15,17.00
2007,07,15,06,16,17.00
2007,07,15,06,17,17.10
2007,07,15,06,18,17.10
2007,07,15,06,19,17.10
2007,07,15,06,20,17.10
2007,07,15,06,21,17.10
2007,07,15,06,22,17.10
2007,07,15,06,23,17.10
2007,07,15,06,24,17.10
2007,07,15,06,25,17.10
2007,07,15,06,26,17.10
2007,07,15,06,27,17.10
2007,07,15,06,28,17.10
2007,07,15,06,29,17.10
2007,07,15,06,30,17.00
2007,07,15,06,31,17.00
2007,07,15,06,32,17.00
2007,07,15,06,33,16.90
2007,07,15,06,34,16.90
2007,07,15,06,35,16.90
2007,07,15,06,36,17.00
2007,07,15,06,37,17.00
2007,07,15,06,38,17.00
2007,07,15,06,39,17.10
2007,07,15,06,40,17.10
2007,07,15,06,41,17.10
2007,07,15,06,42,17.10
2007,07,15,06,43,17.10
2007,07,15,06,44,17.20
2007,07,15,06,45,17.20
2007,07,15,06,46,17.20
2007,07,15,06,47,17.30
2007,07,15,06,48,17.30
2007,07,15,06,49,17.30
2007,07,15,06,50,17.30
2007,07,15,06,51,17.30
2007,07,15,06,52,17.40
2007,07,15,06,53,17.40
2007,07,15,06,54,17.40
2007,07,15,06,55,17.40
2007,07,15,06,56,17.30
2007,07,15,06,57,17.30
2007,07,15,06,58,17.30
2007,07,15,06,59,17.30
2007,07,15,07,00,17.30
2007,07,15,07,01,17.30
2007,07,15,07,02,17.30
2007,07,15,07,03,17.30
2007,07,15,07,04,17.20
2007,07,15,07,05,17.20
2007,07,15,07,06,17.20
2007,07,15,07,07,17.20
2007,07,15,07,08,17.20
2007,07,15,07,09,17.20
2007,07,15,07,10,17.20
2007,07,15,07,11,17.20
2007,07,15,07,12,17.20
2007,07,15,07,13,17.20
2007,07,15,07,14,17.20
2007,07,15,07,15,17.30
2007,07,15,07,16,17.30
2007,07,15,07,17,17.30
2007,07,15,07,18,17.30
2007,07,15,07,19,17.30
2007,07,15,07,20,17.40
2007,07,15,07,21,17.40
2007,07,15,07,22,17.40
2007,07,15,07,23,17.40
2007,07,15,07,24,17.40
2007,07,15,07,25,17.40
2007,07,15,07,26,17.50
2007,07,15,07,27,17.50
2007,07,15,07,28,17.60
2007,07,15,07,29,17.60
2007,07,15,07,30,17.60
2007,07,15,07,31,17.70
2007,07,15,07,32,17.70
2007,07,15,07,33,17.70
2007,07,15,07,34,17.70
2007,07,15,07,35,17.80
2007,07,15,07,36,17.80
2007,07,15,07,37,17.80
2007,07,15,07,38,17.80
2007,07,15,07,39,17.90
2007,07,15,07,40,17.90
2007,07,15,07,41,17.90
2007,07,15,07,42,17.90
2007,07,15,07,43,18.00
2007,07,15,07,44,18.00
2007,07,15,07,45,18.10
2007,07,15,07,46,18.10
2007,07,15,07,47,18.10
2007,07,15,07,48,18.10
2007,07,15,07,49,18.10
2007,07,15,07,50,18.10
2007,07,15,07,51,18.10
2007,07,15,07,52,18.20
2007,07,15,07,53,18.20
2007,07,15,07,54,18.30
2007,07,15,07,55,18.40
2007,07,15,07,56,18.40
2007,07,15,07,57,18.50
2007,07,15,07,58,18.50
2007,07,15,07,59,18.60
2007,07,15,08,00,18.60
2007,07,15,08,01,18.70
2007,07,15,08,02,18.70
2007,07,15,08,03,18.70
2007,07,15,08,04,18.70
2007,07,15,08,05,18.70
2007,07,15,08,06,18.70
2007,07,15,08,07,18.70
2007,07,15,08,08,18.70
2007,07,15,08,09,18.70
2007,07,15,08,10,18.70
2007,07,15,08,11,18.70
2007,07,15,08,12,18.70
2007,07,15,08,13,18.70
2007,07,15,08,14,18.70
2007,07,15,08,15,18.80
2007,07,15,08,16,18.80
2007,07,15,08,17,18.80
2007,07,15,08,18,18.80
2007,07,15,08,19,18.80
2007,07,15,08,20,18.80
2007,07,15,08,21,18.80
2007,07,15,08,22,18.80
2007,07,15,08,23,18.80
2007,07,15,08,24,18.80
2007,07,15,08,25,18.80
2007,07,15,08,26,18.70
2007,07,15,08,27,18.50
2007,07,15,08,28,18.20
2007,07,15,08,29,18.00
2007,07,15,08,30,17.90
2007,07,15,08,31,17.70
2007,07,15,08,32,17.50
2007,07,15,08,33,17.30
2007,07,15,08,34,16.90
2007,07,15,08,35,16.60
2007,07,15,08,36,16.40
2007,07,15,08,37,16.20
2007,07,15,08,38,15.90
2007,07,15,08,39,15.70
2007,07,15,08,40,15.60
2007,07,15,08,41,15.50
2007,07,15,08,42,15.40
2007,07,15,08,43,15.30
2007,07,15,08,44,15.30
2007,07,15,08,45,15.20
2007,07,15,08,46,15.20
2007,07,15,08,47,15.30
2007,07,15,08,48,15.40
2007,07,15,08,49,15.50
2007,07,15,08,50,15.70
2007,07,15,08,51,15.80
2007,07,15,08,52,16.00
2007,07,15,08,53,16.20
2007,07,15,08,54,16.20
2007,07,15,08,55,16.30
2007,07,15,08,56,16.40
2007,07,15,08,57,16.60
2007,07,15,08,58,16.70
2007,07,15,08,59,16.80
2007,07,15,09,00,16.90
2007,07,15,09,01,16.90
2007,07,15,09,02,17.00
2007,07,15,09,03,17.20
2007,07,15,09,04,17.20
2007,07,15,09,05,17.10
2007,07,15,09,06,17.20
2007,07,15,09,07,17.10
2007,07,15,09,08,17.10
2007,07,15,09,09,17.20
2007,07,15,09,10,17.30
2007,07,15,09,11,17.40
2007,07,15,09,12,17.50
2007,07,15,09,13,17.60
2007,07,15,09,14,17.70
2007,07,15,09,15,17.90
2007,07,15,09,16,17.90
2007,07,15,09,17,18.00
2007,07,15,09,18,18.10
2007,07,15,09,19,18.10
2007,07,15,09,20,18.20
2007,07,15,09,21,18.20
2007,07,15,09,22,18.30
2007,07,15,09,23,18.30
2007,07,15,09,24,18.20
2007,07,15,09,25,18.10
2007,07,15,09,26,18.00
2007,07,15,09,27,17.80
2007,07,15,09,28,17.70
2007,07,15,09,29,17.50
2007,07,15,09,30,17.50
2007,07,15,09,31,17.40
2007,07,15,09,32,17.40
2007,07,15,09,33,17.40
2007,07,15,09,34,17.40
2007,07,15,09,35,17.40
2007,07,15,09,36,17.40
2007,07,15,09,37,17.30
2007,07,15,09,38,17.30
2007,07,15,09,39,17.30
2007,07,15,09,40,17.20
2007,07,15,09,41,17.20
2007,07,15,09,42,17.10
2007,07,15,09,43,17.10
2007,07,15,09,44,17.20
2007,07,15,09,45,17.20
2007,07,15,09,46,17.20
2007,07,15,09,47,17.30
2007,07,15,09,48,17.30
2007,07,15,09,49,17.30
2007,07,15,09,50,17.30
2007,07,15,09,51,17.30
2007,07,15,09,52,17.30
2007,07,15,09,53,17.30
2007,07,15,09,54,17.30
2007,07,15,09,55,17.30
2007,07,15,09,56,17.30
2007,07,15,09,57,17.40
2007,07,15,09,58,17.40
2007,07,15,09,59,17.40
2007,07,15,10,00,17.40
2007,07,15,10,01,17.30
2007,07,15,10,02,17.30
2007,07,15,10,03,17.40
2007,07,15,10,04,17.40
2007,07,15,10,05,17.50
2007,07,15,10,06,17.40
2007,07,15,10,07,17.50
2007,07,15,10,08,17.60
2007,07,15,10,09,17.60
2007,07,15,10,10,17.70
2007,07,15,10,11,17.60
2007,07,15,10,12,17.40
2007,07,15,10,13,17.30
2007,07,15,10,14,17.30
2007,07,15,10,15,17.20
2007,07,15,10,16,17.10
2007,07,15,10,17,17.20
2007,07,15,10,18,17.30
2007,07,15,10,19,17.40
2007,07,15,10,20,17.50
2007,07,15,10,21,17.60
2007,07,15,10,22,17.60
2007,07,15,10,23,17.70
2007,07,15,10,24,17.70
2007,07,15,10,25,17.80
2007,07,15,10,26,17.80
2007,07,15,10,27,17.80
2007,07,15,10,28,17.80
2007,07,15,10,29,17.80
2007,07,15,10,30,17.90
2007,07,15,10,31,17.90
2007,07,15,10,32,18.00
2007,07,15,10,33,18.00
2007,07,15,10,34,18.10
2007,07,15,10,35,18.10
2007,07,15,10,36,18.20
2007,07,15,10,37,18.30
2007,07,15,10,38,18.50
2007,07,15,10,39,18.50
2007,07,15,10,40,18.60
2007,07,15,10,41,18.70
2007,07,15,10,42,18.80
2007,07,15,10,43,19.00
2007,07,15,10,44,19.00
2007,07,15,10,45,19.10
2007,07,15,10,46,19.20
2007,07,15,10,47,19.20
2007,07,15,10,48,19.20
2007,07,15,10,49,19.20
2007,07,15,10,50,19.30
2007,07,15,10,51,19.40
2007,07,15,10,52,19.40
2007,07,15,10,53,19.50
2007,07,15,10,54,19.60
2007,07,15,10,55,19.60
2007,07,15,10,56,19.50
2007,07,15,10,57,19.50
2007,07,15,10,58,19.50
2007,07,15,10,59,19.40
2007,07,15,11,00,19.30
2007,07,15,11,01,19.20
2007,07,15,11,02,19.10
2007,07,15,11,03,18.90
2007,07,15,11,04,18.80
2007,07,15,11,05,18.60
2007,07,15,11,06,18.50
2007,07,15,11,07,18.40
2007,07,15,11,08,18.30
2007,07,15,11,09,18.20
2007,07,15,11,10,18.20
2007,07,15,11,11,18.20
2007,07,15,11,12,18.30
2007,07,15,11,13,18.30
2007,07,15,11,14,18.20
2007,07,15,11,15,18.10
2007,07,15,11,16,18.00
2007,07,15,11,17,17.90
2007,07,15,11,18,17.90
2007,07,15,11,19,17.90
2007,07,15,11,20,17.90
2007,07,15,11,21,17.90
2007,07,15,11,22,17.90
2007,07,15,11,23,18.00
2007,07,15,11,24,18.00
2007,07,15,11,25,18.00
2007,07,15,11,26,18.00
2007,07,15,11,27,18.10
2007,07,15,11,28,18.10
2007,07,15,11,29,18.20
2007,07,15,11,30,18.20
2007,07,15,11,31,18.10
2007,07,15,11,32,18.10
2007,07,15,11,33,18.10
2007,07,15,11,34,18.10
2007,07,15,11,35,18.20
2007,07,15,11,36,18.20
2007,07,15,11,37,18.30
2007,07,15,11,38,18.40
2007,07,15,11,39,18.50
2007,07,15,11,40,18.60
2007,07,15,11,41,18.60
2007,07,15,11,42,18.70
2007,07,15,11,43,18.70
2007,07,15,11,44,18.70
2007,07,15,11,45,18.70
2007,07,15,11,46,18.70
2007,07,15,11,47,18.80
2007,07,15,11,48,18.80
2007,07,15,11,49,18.90
2007,07,15,11,50,19.00
2007,07,15,11,51,19.20
2007,07,15,11,52,19.30
2007,07,15,11,53,19.50
2007,07,15,11,54,19.60
2007,07,15,11,55,19.60
2007,07,15,11,56,19.60
2007,07,15,11,57,19.60
2007,07,15,11,58,19.60
2007,07,15,11,59,19.60
2007,07,15,12,00,19.50
2007,07,15,12,01,19.40
2007,07,15,12,02,19.30
2007,07,15,12,03,19.30
2007,07,15,12,04,19.30
2007,07,15,12,05,19.30
2007,07,15,12,06,19.10
2007,07,15,12,07,19.00
2007,07,15,12,08,19.00
2007,07,15,12,09,18.90
2007,07,15,12,10,18.90
2007,07,15,12,11,18.90
2007,07,15,12,12,19.00
2007,07,15,12,13,19.10
2007,07,15,12,14,19.20
2007,07,15,12,15,19.20
2007,07,15,12,16,19.10
2007,07,15,12,17,19.10
2007,07,15,12,18,19.20
2007,07,15,12,19,19.30
2007,07,15,12,20,19.40
2007,07,15,12,21,19.50
2007,07,15,12,22,19.70
2007,07,15,12,23,19.80
2007,07,15,12,24,20.00
2007,07,15,12,25,20.10
2007,07,15,12,26,20.20
2007,07,15,12,27,20.30
2007,07,15,12,28,20.40
2007,07,15,12,29,20.60
2007,07,15,12,30,20.70
2007,07,15,12,31,20.70
2007,07,15,12,32,20.80
2007,07,15,12,33,20.80
2007,07,15,12,34,20.90
2007,07,15,12,35,20.90
2007,07,15,12,36,21.00
2007,07,15,12,37,21.00
2007,07,15,12,38,21.10
2007,07,15,12,39,21.20
2007,07,15,12,40,21.40
2007,07,15,12,41,21.50
2007,07,15,12,42,21.50
2007,07,15,12,43,21.60
2007,07,15,12,44,21.80
2007,07,15,12,45,21.90
2007,07,15,12,46,22.10
2007,07,15,12,47,22.20
2007,07,15,12,48,22.20
2007,07,15,12,49,22.10
2007,07,15,12,50,22.00
2007,07,15,12,51,22.00
2007,07,15,12,52,21.90
2007,07,15,12,53,21.90
2007,07,15,12,54,21.90
2007,07,15,12,55,21.80
2007,07,15,12,56,21.80
2007,07,15,12,57,21.80
2007,07,15,12,58,21.90
2007,07,15,12,59,21.90
2007,07,15,13,00,21.90
2007,07,15,13,01,21.90
2007,07,15,13,02,21.80
2007,07,15,13,03,21.70
2007,07,15,13,04,21.60
2007,07,15,13,05,21.60
2007,07,15,13,06,21.60
2007,07,15,13,07,21.60
2007,07,15,13,08,21.60
2007,07,15,13,09,21.70
2007,07,15,13,10,21.80
2007,07,15,13,11,21.90
2007,07,15,13,12,22.00
2007,07,15,13,13,22.20
2007,07,15,13,14,22.30
2007,07,15,13,15,22.40
2007,07,15,13,16,22.40
2007,07,15,13,17,22.50
2007,07,15,13,18,22.70
2007,07,15,13,19,22.80
2007,07,15,13,20,22.90
2007,07,15,13,21,23.00
2007,07,15,13,22,23.10
2007,07,15,13,23,23.10
2007,07,15,13,24,23.10
2007,07,15,13,25,23.20
2007,07,15,13,26,23.20
2007,07,15,13,27,23.10
2007,07,15,13,28,23.10
2007,07,15,13,29,23.10
2007,07,15,13,30,23.20
2007,07,15,13,31,23.30
2007,07,15,13,32,23.50
2007,07,15,13,33,23.60
2007,07,15,13,34,23.60
2007,07,15,13,35,23.60
2007,07,15,13,36,23.60
2007,07,15,13,37,23.70
2007,07,15,13,38,23.70
2007,07,15,13,39,23.80
2007,07,15,13,40,23.80
2007,07,15,13,41,23.80
2007,07,15,13,42,23.90
2007,07,15,13,43,24.00
2007,07,15,13,44,24.10
2007,07,15,13,45,24.20
2007,07,15,13,46,24.20
2007,07,15,13,47,24.30
2007,07,15,13,48,24.30
2007,07,15,13,49,24.20
2007,07,15,13,50,24.20
2007,07,15,13,51,24.10
2007,07,15,13,52,24.10
2007,07,15,13,53,24.00
2007,07,15,13,54,23.90
2007,07,15,13,55,23.90
2007,07,15,13,56,24.00
2007,07,15,13,57,24.00
2007,07,15,13,58,24.10
2007,07,15,13,59,24.20
2007,07,15,14,00,24.20
2007,07,15,14,01,24.20
2007,07,15,14,02,24.30
2007,07,15,14,03,24.30
2007,07,15,14,04,24.40
2007,07,15,14,05,24.40
2007,07,15,14,06,24.40
2007,07,15,14,07,24.40
2007,07,15,14,08,24.50
2007,07,15,14,09,24.50
2007,07,15,14,10,24.60
2007,07,15,14,11,24.70
2007,07,15,14,12,24.70
2007,07,15,14,13,24.70
2007,07,15,14,14,24.70
2007,07,15,14,15,24.70
2007,07,15,14,16,24.60
2007,07,15,14,17,24.50
2007,07,15,14,18,24.40
2007,07,15,14,19,24.30
2007,07,15,14,20,24.30
2007,07,15,14,21,24.30
2007,07,15,14,22,24.30
2007,07,15,14,23,24.20
2007,07,15,14,24,24.20
2007,07,15,14,25,24.20
2007,07,15,14,26,24.10
2007,07,15,14,27,24.00
2007,07,15,14,28,24.00
2007,07,15,14,29,24.00
2007,07,15,14,30,24.00
2007,07,15,14,31,23.90
2007,07,15,14,32,23.90
2007,07,15,14,33,23.80
2007,07,15,14,34,23.80
2007,07,15,14,35,23.80
2007,07,15,14,36,23.80
2007,07,15,14,37,23.80
2007,07,15,14,38,23.80
2007,07,15,14,39,23.80
2007,07,15,14,40,23.90
2007,07,15,14,41,23.90
2007,07,15,14,42,24.00
2007,07,15,14,43,24.10
2007,07,15,14,44,24.10
2007,07,15,14,45,24.10
2007,07,15,14,46,24.20
2007,07,15,14,47,24.20
2007,07,15,14,48,24.20
2007,07,15,14,49,24.30
2007,07,15,14,50,24.40
2007,07,15,14,51,24.50
2007,07,15,14,52,24.60
2007,07,15,14,53,24.60
2007,07,15,14,54,24.60
2007,07,15,14,55,24.60
2007,07,15,14,56,24.50
2007,07,15,14,57,24.50
2007,07,15,14,58,24.60
2007,07,15,14,59,24.60
2007,07,15,15,00,24.60
2007,07,15,15,01,24.60
2007,07,15,15,02,24.50
2007,07,15,15,03,24.50
2007,07,15,15,04,24.50
2007,07,15,15,05,24.60
2007,07,15,15,06,24.70
2007,07,15,15,07,24.70
2007,07,15,15,08,24.60
2007,07,15,15,09,24.60
2007,07,15,15,10,24.50
2007,07,15,15,11,24.50
2007,07,15,15,12,24.40
2007,07,15,15,13,24.30
2007,07,15,15,14,24.30
2007,07,15,15,15,24.30
2007,07,15,15,16,24.30
2007,07,15,15,17,24.30
2007,07,15,15,18,24.30
2007,07,15,15,19,24.30
2007,07,15,15,20,24.30
2007,07,15,15,21,24.30
2007,07,15,15,22,24.30
2007,07,15,15,23,24.30
2007,07,15,15,24,24.30
2007,07,15,15,25,24.20
2007,07,15,15,26,24.20
2007,07,15,15,27,24.30
2007,07,15,15,28,24.30
2007,07,15,15,29,24.30
2007,07,15,15,30,24.40
2007,07,15,15,31,24.40
2007,07,15,15,32,24.40
2007,07,15,15,33,24.50
2007,07,15,15,34,24.40
2007,07,15,15,35,24.30
2007,07,15,15,36,24.20
2007,07,15,15,37,24.10
2007,07,15,15,38,24.10
2007,07,15,15,39,24.20
2007,07,15,15,40,24.40
2007,07,15,15,41,24.50
2007,07,15,15,42,24.50
2007,07,15,15,43,24.60
2007,07,15,15,44,24.60
2007,07,15,15,45,24.50
2007,07,15,15,46,24.40
2007,07,15,15,47,24.40
2007,07,15,15,48,24.40
2007,07,15,15,49,24.30
2007,07,15,15,50,24.40
2007,07,15,15,51,24.40
2007,07,15,15,52,24.40
2007,07,15,15,53,24.40
2007,07,15,15,54,24.50
2007,07,15,15,55,24.60
2007,07,15,15,56,24.70
2007,07,15,15,57,24.80
2007,07,15,15,58,24.90
2007,07,15,15,59,25.00
2007,07,15,16,00,25.00
2007,07,15,16,01,25.00
2007,07,15,16,02,24.90
2007,07,15,16,03,24.80
2007,07,15,16,04,24.70
2007,07,15,16,05,24.60
2007,07,15,16,06,24.60
2007,07,15,16,07,24.60
2007,07,15,16,08,24.60
2007,07,15,16,09,24.60
2007,07,15,16,10,24.60
2007,07,15,16,11,24.60
2007,07,15,16,12,24.70
2007,07,15,16,13,24.70
2007,07,15,16,14,24.80
2007,07,15,16,15,24.80
2007,07,15,16,16,24.90
2007,07,15,16,17,25.10
2007,07,15,16,18,25.20
2007,07,15,16,19,25.20
2007,07,15,16,20,25.20
2007,07,15,16,21,25.20
2007,07,15,16,22,25.30
2007,07,15,16,23,25.30
2007,07,15,16,24,25.30
2007,07,15,16,25,25.30
2007,07,15,16,26,25.40
2007,07,15,16,27,25.40
2007,07,15,16,28,25.40
2007,07,15,16,29,25.50
2007,07,15,16,30,25.40
2007,07,15,16,31,25.50
2007,07,15,16,32,25.50
2007,07,15,16,33,25.50
2007,07,15,16,34,25.50
2007,07,15,16,35,25.50
2007,07,15,16,36,25.40
2007,07,15,16,37,25.40
2007,07,15,16,38,25.40
2007,07,15,16,39,25.30
2007,07,15,16,40,25.20
2007,07,15,16,41,25.20
2007,07,15,16,42,25.10
2007,07,15,16,43,25.10
2007,07,15,16,44,25.00
2007,07,15,16,45,25.00
2007,07,15,16,46,25.00
2007,07,15,16,47,24.90
2007,07,15,16,48,24.80
2007,07,15,16,49,24.80
2007,07,15,16,50,24.90
2007,07,15,16,51,25.00
2007,07,15,16,52,25.00
2007,07,15,16,53,25.00
2007,07,15,16,54,24.90
2007,07,15,16,55,25.00
2007,07,15,16,56,25.00
2007,07,15,16,57,25.00
2007,07,15,16,58,25.10
2007,07,15,16,59,25.10
2007,07,15,17,00,25.20
2007,07,15,17,01,25.20
2007,07,15,17,02,25.20
2007,07,15,17,03,25.30
2007,07,15,17,04,25.40
2007,07,15,17,05,25.50
2007,07,15,17,06,25.70
2007,07,15,17,07,25.80
2007,07,15,17,08,25.90
2007,07,15,17,09,25.90
2007,07,15,17,10,25.90
2007,07,15,17,11,25.80
2007,07,15,17,12,25.80
2007,07,15,17,13,25.60
2007,07,15,17,14,25.40
2007,07,15,17,15,25.20
2007,07,15,17,16,25.00
2007,07,15,17,17,24.90
2007,07,15,17,18,24.70
2007,07,15,17,19,24.70